User: anonymous   Login
Location: The Jewett Observatory
(46.7288°N, 117.1525°W)
Time: 16:12:19
(UTC-08:00)
Language:

Cosmos 1844 Rocket - Orbit

View from above orbital plane
View from above orbital plane
View from above satellite
View from above satellite

Ground track
Ground track

The orbit data is extracted from the following two-line orbital elements,

1 17974U 87041B   17326.37590659 -.00000233 +00000-0 -91440-4 0  9993
2 17974 071.0080 296.5528 0013055 161.8292 306.6012 14.17236072578894
Epoch (UTC): 22 November 2017 09:01:18
Eccentricity: 0.0013055
inclination: 71.0080°
perigee height: 825 km
apogee height: 844 km
right ascension of ascending node: 296.5528°
argument of perigee: 161.8292°
revolutions per day: 14.17236072
mean anomaly at epoch: 306.6012°
orbit number at epoch: 57889

The dashed part of the orbit path shows where the satellite is in the earth's shadow,  

DLR